sat.trackr.live / text

‹ back to catalog

STARLINK-1506

NORAD 45747 · 2020-038T

PAYLOAD ACTIVE UNKNOWN

§ Identity

Operator
Country
US
Launch date
2020-06-13
Launch site
AFETR
Launch vehicle
Mass (kg)
RCS (m²)

Purposes: comms

External: N2YO · Heavens-Above · Gunter

§ Orbital elements

Epoch: 2026-09-19T22:42:45.811584Z

Period
94.01 min
Inclination
53.0742°
Eccentricity
0.0003678
Mean motion
15.31720156 rev/d
Perigee alt
468.2 km
Apogee alt
473.2 km
Semi-major
6,848.8 km
B*
2.1936e-4
RAAN
20.1504°
Arg perigee
145.5835°
Mean anomaly
214.5404°
Rev number
34,640

§ Raw data

STARLINK-15061 45747U 20038T   26262.94636356  .00006452  00000+0  21936-3 0  99902 45747  53.0742  20.1504 0003678 145.5835 214.5404 15.31720156346405

JSON: /api/v1/satellites/45747 · /tle

For live sub-satellite position, see the globe view (requires WebGL).

§ Visibility from observer

Set your observer location to see the next 7 days of passes ≥ 10°. The values pass through the URL so the page stays shareable.

No JS? Fill the form by hand. The geolocation button needs JavaScript.